CW9968 Weather Reports


Display with metric or nautical units.
time (UTC)temp
F
wind
direction
speed
MPH
gust
MPH
rain 1hr
in
rain 24hr
in
rain mn
in
humidity
%
barometer
mb
20180426074306 35 355 0.0 0.0 0.00 0.00 0.00 85 1013.3
20180426073806 35 355 0.0 0.0 0.00 0.00 0.00 85 1013.4
20180426073306 35 355 0.0 0.0 0.00 0.00 0.00 85 1013.5
20180426072806 35 355 0.0 0.0 0.00 0.00 0.00 85 1013.5
20180426072306 36 355 0.0 0.0 0.00 0.00 0.00 84 1013.6
20180426071805 36 355 0.0 0.0 0.00 0.00 0.00 84 1013.6
20180426071305 36 355 0.0 0.0 0.00 0.00 0.00 84 1013.6
20180426070806 36 355 0.0 0.0 0.00 0.00 0.00 84 1013.5
20180426070306 36 355 0.0 0.0 0.00 0.00 0.00 83 1013.5
20180426065806 36 355 0.0 0.0 0.00 0.00 0.00 83 1013.5
20180426065306 36 355 0.0 2.0 0.00 0.00 0.00 83 1013.4
20180426064806 36 355 0.0 0.0 0.00 0.00 0.00 83 1013.5
20180426064305 37 355 0.0 0.0 0.00 0.00 0.00 83 1013.6
20180426063806 37 355 0.0 0.0 0.00 0.00 0.00 83 1013.5
20180426063306 37 355 0.0 0.0 0.00 0.00 0.00 83 1013.6
20180426062806 37 355 1.0 2.0 0.00 0.00 0.00 82 1013.6
20180426062306 37 355 0.0 0.0 0.00 0.00 0.00 82 1013.6
20180426061806 37 355 0.0 0.0 0.00 0.00 0.00 82 1013.7
20180426061306 37 355 0.0 3.0 0.00 0.00 0.00 81 1013.8
20180426060805 37 355 0.0 0.0 0.00 0.00 0.00 81 1013.8
20180426060306 37 355 1.0 2.0 0.00 0.00 0.00 81 1013.8
20180426055806 37 355 0.0 0.0 0.00 0.00 0.00 80 1013.8
20180426055306 37 355 0.0 0.0 0.00 0.00 0.00 80 1013.9
20180426054805 37 355 0.0 0.0 0.00 0.00 0.00 80 1013.9
20180426054306 37 355 1.0 2.0 0.00 0.00 0.00 79 1014.0
20180426053806 38 355 0.0 0.0 0.00 0.00 0.00 79 1014.0
20180426053306 38 355 0.0 0.0 0.00 0.00 0.00 78 1014.1
20180426052806 38 355 0.0 0.0 0.00 0.00 0.00 77 1014.2
20180426052306 38 355 0.0 0.0 0.00 0.00 0.00 77 1014.3
20180426051805 38 355 0.0 0.0 0.00 0.00 0.00 77 1014.4
20180426051305 38 355 0.0 0.0 0.00 0.00 0.00 76 1014.4
20180426050806 39 355 0.0 0.0 0.00 0.00 0.00 76 1014.4
20180426050306 39 355 0.0 1.0 0.00 0.00 0.00 75 1014.3
20180426045806 39 355 0.0 2.0 0.00 0.00 0.00 75 1014.3
20180426045306 39 355 0.0 1.0 0.00 0.00 0.00 74 1014.2
20180426044806 39 355 0.0 2.0 0.00 0.00 0.00 74 1014.3
20180426044305 39 355 0.0 0.0 0.00 0.00 0.00 73 1014.3
20180426043805 39 355 0.0 3.0 0.00 0.00 0.00 73 1014.3
20180426043306 40 355 0.0 0.0 0.00 0.00 0.00 73 1014.4
20180426042806 40 355 0.0 0.0 0.00 0.00 0.00 72 1014.4
20180426042306 40 355 0.0 0.0 0.00 0.00 0.00 72 1014.5
20180426041806 40 355 0.0 0.0 0.00 0.00 0.00 72 1014.6
20180426041315 40 355 0.0 1.0 0.00 0.00 0.00 71 1014.5
20180426040805 41 355 2.0 5.0 0.00 0.00 0.00 71 1014.6
20180426040306 41 355 2.0 5.0 0.00 0.00 0.00 70 1014.7
20180426035806 41 338 1.0 3.0 0.00 0.00 0.00 70 1014.6
20180426035306 41 338 2.0 5.0 0.00 0.00 0.00 69 1014.7
20180426034806 41 340 0.0 6.0 0.00 0.00 0.00 69 1014.7
20180426034306 41 340 0.0 3.0 0.00 0.00 0.00 68 1014.7
20180426033806 41 340 1.0 3.0 0.00 0.00 0.00 67 1014.8
20180426033306 41 340 0.0 3.0 0.00 0.00 0.00 67 1014.8
20180426032806 42 340 0.0 3.0 0.00 0.00 0.00 66 1014.9
20180426032306 42 340 2.0 5.0 0.00 0.00 0.00 66 1014.9
20180426031806 42 340 2.0 3.0 0.00 0.00 0.00 65 1015.0
20180426031306 42 341 2.0 5.0 0.00 0.00 0.00 65 1014.9
20180426030805 42 346 0.0 3.0 0.00 0.00 0.00 65 1015.0
20180426030306 42 348 2.0 5.0 0.00 0.00 0.00 64 1015.0
20180426025805 43 348 1.0 3.0 0.00 0.00 0.00 64 1015.0
20180426025306 43 348 0.0 3.0 0.00 0.00 0.00 64 1015.1
20180426024806 43 348 0.0 0.0 0.00 0.00 0.00 64 1015.0
20180426024305 43 348 0.0 0.0 0.00 0.00 0.00 63 1015.1
20180426023806 43 348 0.0 2.0 0.00 0.00 0.00 63 1015.0
20180426023306 44 348 0.0 3.0 0.00 0.00 0.00 62 1015.0
20180426022806 44 348 0.0 2.0 0.00 0.00 0.00 62 1015.1
20180426022306 44 348 0.0 1.0 0.00 0.00 0.00 62 1015.1
20180426021805 44 348 0.0 1.0 0.00 0.00 0.00 61 1015.0
20180426021306 44 348 0.0 0.0 0.00 0.00 0.00 61 1015.0
20180426020806 45 348 0.0 3.0 0.00 0.00 0.00 61 1015.1
20180426020306 45 351 0.0 3.0 0.00 0.00 0.00 61 1015.1
20180426015805 45 355 1.0 3.0 0.00 0.00 0.00 61 1015.0
20180426015306 45 355 0.0 3.0 0.00 0.00 0.00 61 1015.0
20180426014806 45 355 1.0 3.0 0.00 0.00 0.00 62 1015.0
20180426014306 45 355 0.0 1.0 0.00 0.00 0.00 61 1015.0
20180426013806 46 355 0.0 3.0 0.00 0.00 0.00 61 1015.0
20180426013306 46 355 0.0 2.0 0.00 0.00 0.00 60 1014.9
20180426012806 46 355 0.0 0.0 0.00 0.00 0.00 60 1014.9
20180426012306 46 355 0.0 1.0 0.00 0.00 0.00 59 1015.0
20180426011805 46 355 0.0 0.0 0.00 0.00 0.00 58 1015.1
20180426011306 47 355 0.0 2.0 0.00 0.00 0.00 57 1015.1
20180426010806 47 355 0.0 0.0 0.00 0.00 0.00 57 1015.1
20180426010306 47 355 0.0 0.0 0.00 0.00 0.00 56 1015.0
20180426005805 48 355 1.0 3.0 0.00 0.00 0.00 56 1015.0
20180426005306 48 355 1.0 6.0 0.00 0.00 0.00 55 1015.0
20180426004805 48 0 3.0 8.0 0.00 0.00 0.00 54 1015.1
20180426004306 48 331 2.0 6.0 0.00 0.00 0.00 54 1015.1
20180426003805 48 330 1.0 6.0 0.00 0.00 0.00 54 1015.1
20180426003306 49 319 1.0 9.0 0.00 0.00 0.00 54 1015.1
20180426002806 49 332 2.0 7.0 0.00 0.00 0.00 53 1015.1
20180426002306 49 335 4.0 10.0 0.00 0.00 0.00 53 1015.1
20180426001806 49 344 5.0 12.0 0.00 0.00 0.00 53 1014.9
20180426001306 49 344 3.0 10.0 0.00 0.00 0.00 53 1014.9
20180426000806 49 334 4.0 9.0 0.00 0.00 0.00 53 1014.9
20180426000306 49 338 5.0 10.0 0.00 0.00 0.00 52 1015.0
20180425235806 50 354 5.0 10.0 0.00 0.00 0.00 52 1014.9
20180425235305 50 355 6.0 13.0 0.00 0.00 0.00 51 1014.9
20180425234806 50 329 6.0 14.0 0.00 0.00 0.00 51 1014.9
20180425234305 50 336 5.0 16.0 0.00 0.00 0.00 51 1015.0
20180425233805 51 352 5.0 12.0 0.00 0.00 0.00 51 1014.9
20180425233305 51 349 5.0 12.0 0.00 0.00 0.00 50 1015.0
20180425232805 51 336 5.0 12.0 0.00 0.00 0.00 50 1015.0
20180425232305 51 339 6.0 15.0 0.00 0.00 0.00 51 1015.0
20180425231806 51 341 4.0 14.0 0.00 0.00 0.00 51 1015.0
20180425231306 51 356 7.0 12.0 0.00 0.00 0.00 52 1014.9
20180425230806 52 324 5.0 16.0 0.00 0.00 0.00 51 1015.0
20180425230305 52 317 5.0 12.0 0.00 0.00 0.00 51 1015.0
20180425225805 52 344 5.0 15.0 0.00 0.00 0.00 50 1015.0
20180425225306 52 336 5.0 13.0 0.00 0.00 0.00 50 1015.1
20180425224806 52 356 6.0 15.0 0.00 0.00 0.00 49 1015.2
20180425224305 52 336 8.0 18.0 0.00 0.00 0.00 48 1015.1
20180425223805 52 326 5.0 20.0 0.00 0.00 0.00 50 1015.1
20180425223305 53 338 9.0 16.0 0.00 0.00 0.00 50 1015.0
20180425222805 53 309 6.0 16.0 0.00 0.00 0.00 50 1014.9
20180425222306 53 339 7.0 17.0 0.00 0.00 0.00 50 1014.9
20180425221805 53 328 2.0 16.0 0.00 0.00 0.00 51 1015.0
20180425221305 53 0 4.0 18.0 0.00 0.00 0.00 49 1015.0
20180425220805 53 341 8.0 16.0 0.00 0.00 0.00 49 1015.0
20180425220305 53 341 4.0 13.0 0.00 0.00 0.00 50 1015.0
20180425215806 53 353 10.0 18.0 0.00 0.00 0.00 49 1015.0
20180425215306 53 338 5.0 16.0 0.00 0.00 0.00 51 1015.0
20180425214805 53 320 6.0 18.0 0.00 0.00 0.00 50 1014.9
20180425214305 53 310 3.0 13.0 0.00 0.00 0.00 49 1014.9
20180425213805 53 326 7.0 13.0 0.00 0.00 0.00 49 1015.1
20180425213305 53 305 7.0 17.0 0.00 0.00 0.00 50 1015.1
20180425212805 54 334 6.0 13.0 0.00 0.00 0.00 51 1015.1
20180425212305 53 334 7.0 15.0 0.00 0.00 0.00 50 1015.1
20180425211806 54 323 6.0 20.0 0.00 0.00 0.00 50 1015.0
20180425211305 54 317 5.0 12.0 0.00 0.00 0.00 52 1014.9
20180425210805 54 337 9.0 22.0 0.00 0.00 0.00 50 1015.0
20180425210305 54 334 7.0 22.0 0.00 0.00 0.00 51 1015.1
20180425205805 54 351 12.0 20.0 0.00 0.00 0.00 50 1015.1
20180425205306 54 3 9.0 22.0 0.00 0.00 0.00 50 1015.1
20180425204806 54 326 6.0 16.0 0.00 0.00 0.00 51 1015.2
20180425204305 53 345 9.0 23.0 0.00 0.00 0.00 50 1015.2
20180425203805 54 337 13.0 22.0 0.00 0.00 0.00 51 1015.3
20180425203305 54 325 6.0 18.0 0.00 0.00 0.00 51 1015.2
20180425202805 54 339 12.0 22.0 0.00 0.00 0.00 50 1015.4
20180425202305 54 323 6.0 20.0 0.00 0.00 0.00 52 1015.5
20180425201806 54 329 10.0 20.0 0.00 0.00 0.00 51 1015.4
20180425201305 55 338 13.0 22.0 0.00 0.00 0.00 49 1015.4
20180425200805 55 342 7.0 22.0 0.00 0.00 0.00 49 1015.3
20180425200305 55 339 6.0 13.0 0.00 0.00 0.00 49 1015.4
20180425195805 55 345 10.0 15.0 0.00 0.00 0.00 48 1015.4
20180425195305 56 336 9.0 16.0 0.00 0.00 0.00 48 1015.4
20180425194805 56 313 8.0 16.0 0.00 0.00 0.00 48 1015.6
20180425194305 56 309 4.0 12.0 0.00 0.00 0.00 48 1015.5
20180425193805 56 314 7.0 17.0 0.00 0.00 0.00 48 1015.5
20180425193305 56 323 6.0 25.0 0.00 0.00 0.00 48 1015.4
20180425192806 56 335 9.0 20.0 0.00 0.00 0.00 47 1015.4
20180425192305 56 324 7.0 20.0 0.00 0.00 0.00 46 1015.5
20180425191805 56 320 4.0 20.0 0.00 0.00 0.00 47 1015.5
20180425191306 56 316 8.0 20.0 0.00 0.00 0.00 48 1015.6
20180425190805 57 317 7.0 18.0 0.00 0.00 0.00 50 1015.5
20180425190306 57 333 7.0 16.0 0.00 0.00 0.00 51 1015.5
20180425185805 57 341 9.0 22.0 0.00 0.00 0.00 51 1015.5
20180425185305 57 298 6.0 14.0 0.00 0.00 0.00 51 1015.5
20180425184805 58 342 7.0 20.0 0.00 0.00 0.00 51 1015.5
20180425184305 57 313 6.0 18.0 0.00 0.00 0.00 53 1015.3
20180425183805 57 340 10.0 22.0 0.00 0.00 0.00 52 1015.3
20180425183306 58 326 6.0 18.0 0.00 0.00 0.00 52 1015.3
20180425182805 58 307 7.0 13.0 0.00 0.00 0.00 52 1015.5
20180425182305 59 333 10.0 17.0 0.00 0.00 0.00 53 1015.4
20180425181805 59 308 6.0 15.0 0.00 0.00 0.00 53 1015.3
20180425181305 59 336 10.0 15.0 0.00 0.00 0.00 52 1015.2
20180425180805 59 327 4.0 12.0 0.00 0.00 0.00 54 1015.2
20180425180305 59 339 8.0 18.0 0.00 0.00 0.00 53 1015.2
20180425175805 59 346 11.0 18.0 0.00 0.00 0.00 53 1015.2
20180425175305 60 334 8.0 20.0 0.00 0.00 0.00 53 1015.2
20180425174805 60 333 3.0 13.0 0.00 0.00 0.00 55 1015.1
20180425174305 59 8 7.0 13.0 0.00 0.00 0.00 54 1015.1
20180425173805 59 307 5.0 12.0 0.00 0.00 0.00 54 1015.2
20180425173305 59 352 9.0 15.0 0.00 0.00 0.00 54 1015.2
20180425172805 59 346 5.0 14.0 0.00 0.00 0.00 54 1015.2
20180425172305 58 351 5.0 17.0 0.00 0.00 0.00 55 1015.4
20180425171805 59 10 8.0 18.0 0.00 0.00 0.00 53 1015.5
20180425171305 59 7 6.0 16.0 0.00 0.00 0.00 55 1015.5
20180425170805 58 337 4.0 10.0 0.00 0.00 0.00 54 1015.5
20180425170305 58 353 7.0 14.0 0.00 0.00 0.00 55 1015.5
20180425165805 58 5 12.0 20.0 0.00 0.00 0.00 56 1015.5
20180425165306 58 6 10.0 17.0 0.00 0.00 0.00 57 1015.5
20180425164805 57 330 7.0 13.0 0.00 0.00 0.00 59 1015.5
20180425164306 57 2 13.0 17.0 0.00 0.00 0.00 58 1015.4
20180425163805 57 0 5.0 17.0 0.00 0.00 0.00 60 1015.5
20180425163305 57 347 8.0 14.0 0.00 0.00 0.00 61 1015.7
20180425162805 57 2 7.0 15.0 0.00 0.00 0.00 60 1015.6
20180425162305 57 334 7.0 13.0 0.00 0.00 0.00 61 1015.6
20180425161805 57 339 6.0 13.0 0.00 0.00 0.00 62 1015.5
20180425161305 56 5 7.0 16.0 0.00 0.00 0.00 64 1015.7
20180425160805 56 357 11.0 20.0 0.00 0.00 0.00 63 1015.7
20180425160305 56 341 9.0 14.0 0.00 0.00 0.00 67 1015.8
20180425155806 55 336 4.0 12.0 0.00 0.00 0.00 69 1015.8
20180425155305 55 2 7.0 14.0 0.00 0.00 0.00 69 1015.9
20180425154804 55 337 7.0 17.0 0.00 0.00 0.00 71 1016.0
20180425154305 54 346 7.0 16.0 0.00 0.00 0.00 72 1016.0
20180425153805 54 1 12.0 18.0 0.00 0.00 0.00 73 1016.0
20180425153305 54 359 6.0 14.0 0.00 0.00 0.00 74 1016.0
20180425152804 54 4 11.0 17.0 0.00 0.00 0.00 75 1016.0
20180425152305 54 349 10.0 15.0 0.00 0.00 0.00 76 1016.0
20180425151805 53 6 9.0 14.0 0.00 0.00 0.00 77 1015.9
20180425151305 53 358 10.0 14.0 0.00 0.00 0.00 78 1016.0
20180425150805 53 351 10.0 15.0 0.00 0.00 0.00 78 1016.0
20180425150305 53 355 6.0 14.0 0.00 0.00 0.00 80 1016.1
20180425145805 53 6 7.0 14.0 0.00 0.00 0.00 80 1016.1
20180425145304 53 31 10.0 14.0 0.00 0.00 0.00 80 1016.2
20180425144805 53 2 10.0 16.0 0.00 0.00 0.00 82 1016.1
20180425144305 52 5 9.0 15.0 0.00 0.00 0.00 82 1016.1
20180425143805 52 16 7.0 14.0 0.00 0.00 0.00 83 1016.1
20180425143306 51 344 9.0 13.0 0.00 0.00 0.00 83 1016.1
20180425142805 51 332 9.0 13.0 0.00 0.00 0.00 83 1016.0
20180425142305 51 355 6.0 12.0 0.00 0.00 0.00 85 1016.0
20180425141805 51 2 5.0 14.0 0.00 0.00 0.00 87 1015.9
20180425141305 50 356 6.0 12.0 0.00 0.00 0.00 88 1016.0
20180425140805 50 348 5.0 12.0 0.00 0.00 0.00 88 1016.0
20180425140305 50 339 6.0 12.0 0.00 0.00 0.00 89 1016.0
20180425135805 50 344 6.0 10.0 0.00 0.00 0.00 90 1015.9
20180425135305 49 343 7.0 14.0 0.00 0.00 0.00 90 1015.9
20180425134805 49 354 8.0 12.0 0.00 0.00 0.00 90 1015.8
20180425134305 49 343 6.0 12.0 0.00 0.00 0.00 91 1015.8
20180425133805 49 338 5.0 10.0 0.00 0.00 0.00 92 1015.7
20180425133304 49 342 6.0 13.0 0.00 0.00 0.00 92 1015.7
20180425132805 49 338 6.0 12.0 0.00 0.00 0.00 92 1015.7
20180425132305 49 340 3.0 10.0 0.00 0.00 0.00 93 1015.6
20180425131805 49 341 5.0 10.0 0.00 0.00 0.00 93 1015.7
20180425131305 49 346 3.0 7.0 0.00 0.00 0.00 93 1015.7
20180425130805 49 344 5.0 13.0 0.00 0.00 0.00 93 1015.7
20180425130305 49 339 3.0 13.0 0.00 0.00 0.00 93 1015.7
20180425125805 49 339 4.0 9.0 0.00 0.00 0.00 93 1015.7
20180425125305 49 338 2.0 8.0 0.00 0.00 0.00 93 1015.7
20180425124805 49 319 3.0 7.0 0.00 0.00 0.00 93 1015.6
20180425124305 49 315 3.0 9.0 0.00 0.00 0.00 93 1015.5
20180425123805 49 331 3.0 9.0 0.00 0.00 0.00 93 1015.6
20180425123305 49 336 5.0 12.0 0.00 0.00 0.00 93 1015.5
20180425122805 49 348 4.0 9.0 0.00 0.00 0.00 93 1015.5
20180425122305 49 345 3.0 9.0 0.00 0.00 0.00 93 1015.3
20180425121805 49 333 5.0 12.0 0.00 0.00 0.00 93 1015.3
20180425121305 49 345 7.0 13.0 0.00 0.00 0.00 93 1015.3
20180425120805 49 337 7.0 12.0 0.00 0.00 0.00 93 1015.3
20180425120305 49 331 2.0 5.0 0.00 0.00 0.00 93 1015.0
20180425115805 49 329 1.0 6.0 0.00 0.00 0.00 93 1015.1
20180425115304 49 340 2.0 5.0 0.00 0.00 0.00 93 1015.0
20180425114804 49 339 2.0 6.0 0.00 0.00 0.00 93 1015.0
20180425114305 49 341 3.0 7.0 0.00 0.00 0.00 93 1015.0
20180425113805 49 342 4.0 10.0 0.00 0.00 0.00 93 1015.0
20180425113305 49 344 3.0 12.0 0.00 0.00 0.00 93 1014.9
20180425112805 49 332 4.0 10.0 0.00 0.00 0.00 93 1014.8
20180425112306 49 337 3.0 14.0 0.00 0.00 0.00 93 1014.8
20180425111805 49 343 5.0 12.0 0.00 0.00 0.00 92 1014.6
20180425111304 49 341 5.0 9.0 0.00 0.00 0.00 92 1014.3
20180425110805 49 339 1.0 7.0 0.00 0.00 0.00 92 1014.1
20180425110305 49 338 3.0 7.0 0.00 0.00 0.00 92 1014.1
20180425105805 49 346 4.0 7.0 0.00 0.00 0.00 92 1013.9
20180425105305 49 355 3.0 7.0 0.00 0.00 0.00 92 1014.0
20180425104805 49 330 3.0 7.0 0.00 0.00 0.00 92 1014.1
20180425104305 49 333 3.0 10.0 0.00 0.00 0.00 92 1013.9
20180425103805 50 330 3.0 12.0 0.00 0.00 0.00 92 1013.9
20180425103305 50 325 2.0 8.0 0.00 0.00 0.00 92 1013.9
20180425102804 50 334 2.0 5.0 0.00 0.00 0.00 92 1013.8
20180425102305 50 334 2.0 3.0 0.00 0.00 0.00 92 1013.7
20180425101806 51 334 2.0 6.0 0.00 0.00 0.00 92 1013.6
20180425101305 51 336 2.0 5.0 0.00 0.00 0.00 92 1013.6
20180425100806 51 336 1.0 3.0 0.00 0.00 0.00 92 1013.5
20180425100305 51 337 1.0 5.0 0.00 0.00 0.00 92 1013.5
20180425095805 51 337 3.0 6.0 0.00 0.00 0.00 92 1013.4
20180425095305 52 337 1.0 3.0 0.00 0.00 0.00 92 1013.4
20180425094805 52 337 3.0 7.0 0.00 0.00 0.00 92 1013.6
20180425094305 52 338 3.0 6.0 0.00 0.00 0.00 92 1013.6
20180425093805 52 338 2.0 5.0 0.00 0.00 0.00 92 1013.5
20180425093305 52 338 2.0 7.0 0.00 0.00 0.00 92 1013.3
20180425092804 52 338 3.0 7.0 0.00 0.00 0.00 92 1013.5
20180425092305 52 345 3.0 7.0 0.00 0.00 0.00 92 1013.4
20180425091805 53 345 2.0 7.0 0.00 0.00 0.00 92 1013.3
20180425091304 53 345 3.0 10.0 0.00 0.00 0.00 92 1013.4
20180425090804 53 347 1.0 6.0 0.00 0.00 0.00 92 1013.4
20180425090305 53 348 2.0 7.0 0.00 0.00 0.00 92 1013.3
20180425085804 53 349 3.0 9.0 0.00 0.00 0.00 92 1013.3
20180425085305 53 355 3.0 7.0 0.00 0.00 0.00 92 1013.3
20180425084805 53 350 3.0 7.0 0.00 0.00 0.00 92 1013.4
20180425084304 53 345 4.0 9.0 0.00 0.00 0.00 93 1013.4
20180425083805 53 345 4.0 9.0 0.00 0.00 0.00 93 1013.4
20180425083305 53 355 4.0 10.0 0.00 0.00 0.00 93 1013.4
20180425082805 53 350 3.0 6.0 0.00 0.00 0.00 92 1013.3
20180425082305 53 349 2.0 6.0 0.00 0.00 0.00 92 1013.3
20180425081804 53 350 3.0 6.0 0.00 0.00 0.00 92 1013.4
20180425081304 53 350 2.0 7.0 0.00 0.00 0.00 92 1013.3
20180425080804 53 350 3.0 6.0 0.00 0.00 0.00 92 1013.4
20180425080304 53 350 2.0 7.0 0.00 0.00 0.00 92 1013.3
20180425075804 53 349 2.0 5.0 0.00 0.00 0.00 92 1013.3
20180425075307 53 349 3.0 7.0 0.00 0.00 0.00 92 1013.4
20180425074805 53 346 2.0 9.0 0.00 0.00 0.00 92 1013.3